This demonstration page uses our WeatherBlox Daily Observations layout. Learn more.

Left ArrowRight Arrow

39.01783, -85.05884

Hourly Observations for June 30, 2017

Temp ( °F °C ) Dew Point ( °F °C ) Humidity (%) Winds ( mph kmh ) Pressure ( in mb ) Visibility ( mi km ) Precip ( " mm )
12:52 am 00:52 Partly Cloudy 76 24.4 70 21.1 82 82 SSW 14 22 29.93 1014 10 16 N/A
1:52 am 01:52 Mostly Cloudy 76 24.4 70 21.1 82 82 SSW 9 15 29.94 1014 10 16 N/A
2:52 am 02:52 Mostly Clear 74 23.3 70 21.1 88 88 SSW 8 13 29.94 1014 10 16 N/A
3:52 am 03:52 Mostly Clear 73 22.8 70 21.1 90 90 SSW 13 20 29.93 1013 10 16 N/A
4:52 am 04:52 Clear 72 22.2 69 20.6 91 91 SSW 12 19 29.92 1013 10 16 N/A
5:52 am 05:52 Mostly Clear 71 21.7 70 21.1 96 96 SSW 8 13 29.94 1014 10 16 N/A
6:52 am 06:52 Mostly Sunny 71 21.7 70 21.1 96 96 SSW 10 17 29.95 1014 10 16 N/A
7:25 am 07:25 Mostly Cloudy 72 22.2 70 21.1 94 94 SSW 10 17 29.97 1015 10 16 N/A
7:52 am 07:52 Cloudy 72 22.2 70 21.1 94 94 SSW 12 19 29.96 1015 10 16 N/A
8:38 am 08:38 Cloudy 72 22.2 71 21.7 97 97 SSW 12 19 29.97 1015 10 16 N/A
8:52 am 08:52 Cloudy 72 22.2 70 21.1 94 94 SSW 13 20 29.97 1015 8 13 N/A
9:52 am 09:52 Cloudy 73 22.8 71 21.7 94 94 SSW 10 17 29.96 1015 9 14 N/A
10:05 am 10:05 Cloudy 73 22.8 71 21.7 94 94 SSW 12 19 29.97 1015 10 16 N/A
10:52 am 10:52 Cloudy 74 23.3 72 22.2 94 94 S 9 15 29.95 1014 10 16 N/A
11:52 am 11:52 Cloudy 76 24.4 72 22.2 88 88 S 12 19 29.93 1014 10 16 N/A
12:18 pm 12:18 Cloudy 78 25.6 72 22.2 82 82 SSW 12 19 29.94 1014 10 16 N/A
12:52 pm 12:52 Cloudy 79 26.1 73 22.8 82 82 S 14 22 29.93 1014 10 16 N/A
1:52 pm 13:52 Mostly Cloudy 80 26.7 72 22.2 76 76 S 10 17 29.92 1013 10 16 N/A
2:10 pm 14:10 Mostly Cloudy 82 27.8 73 22.8 74 74 SSW 13 20 29.88 1012 10 16 N/A
2:52 pm 14:52 Mostly Cloudy 82 27.8 73 22.8 74 74 SW 13 20 29.91 1013 10 16 N/A
3:52 pm 15:52 Mostly Cloudy 82 27.8 73 22.8 74 74 SSW 10 17 29.89 1012 10 16 N/A
4:52 pm 16:52 Mostly Cloudy 83 28.3 71 21.7 67 67 SSW 13 20 29.86 1011 10 16 N/A
5:52 pm 17:52 Mostly Cloudy 84 28.9 72 22.2 67 67 SSW 10 17 29.85 1011 10 16 N/A
6:52 pm 18:52 Mostly Cloudy 82 27.8 71 21.7 69 69 SSW 7 11 29.84 1011 10 16 N/A
7:52 pm 19:52 Mostly Cloudy 81 27.2 72 22.2 74 74 S 7 11 29.83 1010 10 16 N/A
8:52 pm 20:52 Mostly Cloudy 79 26.1 71 21.7 77 77 SSW 7 11 29.83 1010 10 16 N/A
9:52 pm 21:52 Cloudy 78 25.6 71 21.7 79 79 S 7 11 29.84 1011 10 16 N/A
10:50 pm 22:50 Mostly Cloudy with Nearby Thunderstorms 79 26 72 22 79 79 SSW 8 13 29.83 1010 10 16 N/A
10:52 pm 22:52 Mostly Cloudy with Nearby Thunderstorms 78 25.6 71 21.7 79 79 SSW 9 15 29.85 1011 10 16 N/A
11:13 pm 23:13 Mostly Cloudy with Nearby Thunderstorms 72 22.2 68 20 87 87 W 13 20 29.88 1012 5 8 0.02 0.51
11:36 pm 23:36 Mostly Cloudy 70 21.1 69 20.6 97 97 SSW 5 7 29.88 1012 10 16 0.04 1.02
11:52 pm 23:52 Cloudy 70 21.1 70 21.1 100 100 S 6 9 29.87 1011 10 16 0.04 1.02

Powered by AerisWeather